EW4283 Weather Reports


time (UTC)temp
F
wind
direction
speed
knots
gust
knots
rain 1hr
in
rain 24hr
in
rain mn
in
humidity
%
barometer
mb
20260506004549 48 64 5.2 10.4 0.00 0.00 0.00 82 1010.5
20260506003049 48 40 7.8 13.9 0.00 0.00 0.00 83 1010.3
20260506001554 49 44 2.6 9.6 0.00 0.00 0.00 83 1010.3
20260506000145 49 53 6.1 13.0 0.00 0.00 0.00 81 1010.4
20260505234542 49 54 5.2 10.4 0.00 0.00 0.00 81 1010.1
20260505233047 49 42 7.0 13.0 0.00 0.00 0.00 82 1010.1
20260505231539 50 46 8.7 15.6 0.00 0.00 0.00 79 1009.9
20260505230040 50 25 8.7 15.6 0.00 0.00 0.00 78 1009.7
20260505224537 50 53 9.6 17.4 0.00 0.00 0.00 77 1009.6
20260505223031 50 34 7.0 22.6 0.00 0.00 0.00 76 1009.4
20260505221529 51 32 8.7 17.4 0.00 0.00 0.00 76 1008.7
20260505220028 51 49 8.7 18.2 0.00 0.00 0.00 75 1008.9
20260505214524 51 77 9.6 18.2 0.00 0.00 0.00 73 1008.4
20260505213027 51 51 9.6 20.0 0.00 0.00 0.00 73 1009.0
20260505211521 52 49 9.6 15.6 0.00 0.00 0.00 71 1008.6
20260505210018 53 39 6.1 15.6 0.00 0.00 0.00 74 1008.2
20260505204516 52 28 9.6 17.4 0.00 0.00 0.00 74 1008.3
20260505203026 52 31 12.2 19.1 0.00 0.00 0.00 73 1008.1
20260505201614 52 30 8.7 17.4 0.00 0.00 0.00 74 1008.0
20260505200014 52 70 8.7 18.2 0.00 0.00 0.00 74 1008.1
20260505194513 52 60 11.3 18.2 0.00 0.00 0.00 74 1008.3
20260505193012 52 42 8.7 19.1 0.00 0.00 0.00 75 1008.3
20260505191508 52 52 10.4 20.0 0.00 0.00 0.00 75 1008.0
20260505190006 53 48 10.4 20.0 0.00 0.00 0.00 75 1007.8
20260505184505 53 34 10.4 25.2 0.00 0.00 0.00 75 1007.6
20260505183003 53 27 9.6 17.4 0.00 0.00 0.00 75 1007.3
20260505181600 53 75 11.3 20.9 0.00 0.00 0.00 76 1007.2
20260505180059 53 61 7.0 17.4 0.00 0.00 0.00 79 1007.2
20260505174556 53 40 9.6 16.5 0.00 0.00 0.00 80 1007.1
20260505173058 53 64 5.2 13.0 0.00 0.00 0.00 81 1006.6
20260505171559 53 44 9.6 17.4 0.00 0.00 0.00 81 1006.6
20260505170048 54 64 4.3 16.5 0.00 0.00 0.00 82 1006.3
20260505164545 54 3 12.2 19.1 0.00 0.00 0.00 80 1006.0
20260505163044 54 54 13.0 19.1 0.00 0.00 0.00 80 1005.5
20260505161543 54 56 8.7 15.6 0.00 0.00 0.00 81 1004.9
20260505153032 54 44 9.6 20.9 0.00 0.00 0.00 83 1004.3
20260505151534 54 41 13.9 22.6 0.00 0.00 0.00 84 1004.2
20260505124558 65 273 1.7 6.1 0.00 0.00 0.00 84 1001.2
20260505123054 64 229 2.6 6.1 0.00 0.00 0.00 84 1000.7
20260505121554 65 55 3.5 7.8 0.00 0.00 0.00 84 1000.4
20260505120109 65 54 3.5 8.7 0.00 0.00 0.00 84 1000.6
20260505114551 64 218 0.9 6.1 0.00 0.00 0.00 84 1000.2
20260505113050 64 50 2.6 7.8 0.00 0.00 0.00 85 1000.4
20260505111548 64 68 3.5 11.3 0.00 0.00 0.00 85 1000.1
20260505101542 64 64 6.1 12.2 0.00 0.00 0.00 85 999.7
20260505100037 64 56 4.3 8.7 0.00 0.00 0.00 86 999.5
20260505094533 65 47 0.0 3.5 0.00 0.00 0.00 86 998.7
20260505093035 65 87 0.0 5.2 0.00 0.00 0.00 86 998.3
20260505091531 65 125 0.9 5.2 0.00 0.00 0.00 85 998.4
20260505090040 65 177 0.9 6.1 0.00 0.00 0.00 85 998.3
20260505084529 65 106 1.7 7.0 0.00 0.00 0.00 85 998.5
20260505083027 66 207 0.9 6.1 0.00 0.00 0.00 84 998.6
20260505081525 66 136 0.9 4.3 0.00 0.00 0.00 85 998.7
20260505080023 66 159 1.7 5.2 0.00 0.00 0.00 85 998.9
20260505074521 66 74 0.0 2.6 0.00 0.00 0.00 84 999.0
20260505073029 66 115 0.9 3.5 0.00 0.00 0.00 84 999.1
20260505071519 67 231 0.9 5.2 0.00 0.00 0.00 82 999.3
20260505070013 67 212 0.0 1.7 0.00 0.00 0.00 81 999.5
20260505064530 68 98 0.0 3.5 0.00 0.00 0.00 80 999.7
20260505063008 69 207 2.6 5.2 0.00 0.00 0.00 79 999.8
20260505061512 69 111 0.0 4.3 0.00 0.00 0.00 77 1000.0
20260505060001 71 67 1.7 5.2 0.00 0.00 0.00 75 1000.0
20260505054627 71 206 6.1 16.5 0.00 0.00 0.00 74 999.2
20260505053107 72 203 9.6 17.4 0.00 0.00 0.00 74 998.9
20260505051553 72 206 8.7 16.5 0.00 0.00 0.00 73 999.0
20260505041555 72 192 9.6 16.5 0.00 0.00 0.00 73 999.2
20260505040044 72 187 7.8 14.8 0.00 0.00 0.00 73 999.4
20260505034542 72 188 7.8 13.9 0.00 0.00 0.00 72 999.6
20260505033042 72 174 7.8 13.9 0.00 0.00 0.00 71 999.7
20260505031551 72 220 6.1 11.3 0.00 0.00 0.00 71 999.7
20260505030039 72 172 6.1 10.4 0.00 0.00 0.00 70 999.9
20260505024541 72 179 7.0 11.3 0.00 0.00 0.00 71 999.8
20260505023038 72 176 4.3 8.7 0.00 0.00 0.00 71 999.9
20260505021538 72 147 4.3 8.7 0.00 0.00 0.00 71 999.9
20260505020036 72 225 5.2 9.6 0.00 0.00 0.00 70 1000.0
20260505014538 73 172 5.2 9.6 0.00 0.00 0.00 69 999.9
20260505013035 73 133 5.2 9.6 0.00 0.00 0.00 68 1000.0
20260505011535 74 184 7.0 10.4 0.00 0.00 0.00 67 999.8
20260505010032 74 167 3.5 7.8 0.00 0.00 0.00 67 1000.0